CZ-6A DEB

Satellite information

Favourite Embed

Satellite Type and Status

DEBRISIN ORBIT

Key statistics

Satellite CZ-6A DEB at a glance.

Uptime

1129

Days in orbit

Revolutions

≈ 14.0

Per day

Orbit

SSO

Sun Synchronous Orbit

Inclination

98.9

Latest

Satellite identification and parameters

Extended collection of information and parameters for CZ-6A DEB.

Object identification

Identified? True

Debris? True

Object name: CZ-6A DEB

International designator: 2022-151M

Object number (NORAD): 54270

Object ID (CCSDS): 54270

Country: PEOPLES REPUBLIC OF CHINA (PRC)

Current information (Y/N): Y

RCS size: MEDIUM

Orbital parameters

Period: 102.692 minutes

Inclination: 98.8801 deg

SMA: 7264.143 km

Apoapsis: 947.141 km

Periapsis: 824.875 km

RAAN: 334.6055 deg

Eccentricy: 0.00841577

Argument of periapsis: 192.0191 deg

Mean anomaly: 167.8968 deg

Mean motion: 14.02252395 rev/day

Mean motion (dot): 0.00000681 rev/day2

B* drag term: 0.00045804579 1/REarth

Two-line elements (TLE)

Creation date: Dec. 14, 2025, 3:07 a.m.

Reference frame: TEME

Reference center: EARTH

Epoch: Dec. 13, 2025, 12:53 p.m. UTC

TLE line 0: 0 CZ-6A DEB

TLE line 1: 1 54270U 22151M 25347.53698651 .00000681 00000-0 45805-3 0 9993

TLE line 2: 2 54270 98.8801 334.6055 0084158 192.0191 167.8968 14.02252395157404

Live tracking on map

Real-time ground track for satellite CZ-6A DEB.

In-orbit conjunctions

A list of the most updated potential collisions computed for object CZ-6A DEB.

Target Orbit TCA Probability of collision Miss distance Type
SL-16 R/B LEO 2025-10-05 09:48:18 0.002377038 149.0 (m) ROCKET BODY
FENGYUN 1C DEB SSO 2024-07-07 01:40:23 0.0002205356 555.0 (m) DEBRIS

Associated space launch

Chinese satellite reported for atmospheric/ocean/environmental/spatial parameter research purposes, details TBD.

CZ-6A DEB was lifted into orbit during the mission ‘Long March 6A | Yunhai 3’, on board a Long March 6A space rocket.

The launch took place on Nov. 11, 2022, 10:52 p.m. from Launch Complex 9A.

For more information about the launch, click the button.

Launch to space Long March 6A | Yunhai 3
Long March 6A | Yunhai 3

Agency: N/A

Status: Launch Successful

Launch date: Nov. 11, 2022, 10:52 p.m. UTC

Rocket: Long March 6A

Launch pad: Launch Complex 9A

Location: Taiyuan Satellite Launch Center, People's Republic of China

...

Latest news about this satellite

There are no fresh news available about this satellite. Check back as we update our databases every day.


Newsletter sign-up

Weekly statistics, charts and insights to help you stay on top of the space industry.